• In Uzbekistan
  • List of Countries
  • For 7 days
  • Water Temperature
  • Satellite Maps
  • Weather Map
  • Weather Widgets
  • user-avatar
    Login

    Hourly Weather Rio Branco

    Today, 19 June, Tuesday

    Time Temperature Precipitation Wind Pressure Humidity
    00:00 +21°C° 0 mm 1 mps 751 mmHg 83%
    01:00 +21°C° 0 mm 1 mps 750 mmHg 85%
    02:00 +20°C° 0 mm 1 mps 750 mmHg 87%
    03:00 +20°C° 0 mm 1 mps 750 mmHg 89%
    04:00 +20°C° 0 mm 1 mps 750 mmHg 91%
    05:00 +20°C° 0 mm 1 mps 750 mmHg 88%
    06:00 +21°C° 0 mm 1 mps 751 mmHg 86%
    07:00 +22°C° 0 mm 1 mps 751 mmHg 84%
    08:00 +24°C° 0 mm 1 mps 751 mmHg 75%
    09:00 +27°C° 0 mm 1 mps 751 mmHg 66%
    10:00 +29°C° 0 mm 1 mps 751 mmHg 56%
    11:00 +30°C° 0 mm 1 mps 750 mmHg 52%
    12:00 +31°C° 0 mm 1 mps 750 mmHg 48%
    13:00 +32°C° 0 mm 1 mps 749 mmHg 45%
    14:00 +32°C° 0 mm 1 mps 748 mmHg 48%
    15:00 +32°C° 0 mm 1 mps 748 mmHg 52%
    16:00 +29°C° 0 mm 0 mps 747 mmHg 55%
    17:00 +27°C° 0 mm 0 mps 747 mmHg 61%
    18:00 +25°C° 0 mm 0 mps 748 mmHg 66%
    19:00 +22°C° 0 mm 0 mps 748 mmHg 72%
    20:00 +22°C° 0 mm 0 mps 748 mmHg 74%
    21:00 +21°C° 0 mm 0 mps 749 mmHg 75%
    22:00 +21°C° 0 mm 0 mps 749 mmHg 77%
    23:00 +20°C° 0 mm 0 mps 749 mmHg 78%

    Tomorrow, 20 June, Wednesday

    Time Temperature Precipitation Wind Pressure Humidity
    00:00 +20°C° 0 mm 0 mps 749 mmHg 79%
    01:00 +20°C° 0 mm 0 mps 749 mmHg 80%
    02:00 +19°C° 0 mm 0 mps 748 mmHg 82%
    03:00 +19°C° 0 mm 0 mps 748 mmHg 83%
    04:00 +19°C° 0 mm 0 mps 748 mmHg 84%
    05:00 +19°C° 0 mm 0 mps 749 mmHg 83%
    06:00 +20°C° 0 mm 0 mps 749 mmHg 81%
    07:00 +20°C° 0 mm 0 mps 750 mmHg 79%
    08:00 +25°C° 0 mm 1 mps 750 mmHg 69%
    09:00 +28°C° 0 mm 1 mps 750 mmHg 58%
    10:00 +31°C° 0 mm 1 mps 751 mmHg 48%
    11:00 +32°C° 0 mm 1 mps 750 mmHg 44%
    12:00 +31°C° 0 mm 0 mps 749 mmHg 41%
    13:00 +32°C° 0 mm 0 mps 748 mmHg 37%
    14:00 +31°C° 0 mm 0 mps 747 mmHg 41%
    15:00 +30°C° 0 mm 0 mps 747 mmHg 45%
    16:00 +30°C° 0 mm 0 mps 746 mmHg 49%
    17:00 +27°C° 0 mm 0 mps 746 mmHg 54%
    18:00 +27°C° 0 mm 1 mps 747 mmHg 59%
    19:00 +25°C° 0 mm 1 mps 747 mmHg 64%
    20:00 +22°C° 0 mm 0 mps 748 mmHg 64%
    21:00 +22°C° 0 mm 0 mps 748 mmHg 64%
    22:00 +22°C° 0 mm 0 mps 749 mmHg 64%
    23:00 +21°C° 0 mm 0 mps 749 mmHg 65%

    Day after tomorrow, 21 June, Thursday

    Time Temperature Precipitation Wind Pressure Humidity
    00:00 +21°C° 0 mm 0 mps 748 mmHg 66%
    01:00 +21°C° 0 mm 0 mps 748 mmHg 66%
    02:00 +20°C° 0 mm 0 mps 748 mmHg 68%
    03:00 +20°C° 0 mm 0 mps 748 mmHg 69%
    04:00 +20°C° 0 mm 0 mps 748 mmHg 70%
    05:00 +20°C° 0 mm 0 mps 749 mmHg 70%
    06:00 +21°C° 0 mm 0 mps 749 mmHg 70%
    07:00 +22°C° 0 mm 0 mps 750 mmHg 70%
    08:00 +25°C° 0 mm 0 mps 750 mmHg 61%
    09:00 +28°C° 0 mm 0 mps 750 mmHg 52%
    10:00 +31°C° 0 mm 0 mps 750 mmHg 43%
    11:00 +32°C° 0 mm 0 mps 750 mmHg 40%
    12:00 +33°C° 0 mm 0 mps 749 mmHg 37%
    13:00 +33°C° 0 mm 0 mps 748 mmHg 34%
    14:00 +32°C° 0 mm 0 mps 747 mmHg 39%
    15:00 +31°C° 0 mm 0 mps 746 mmHg 44%
    16:00 +30°C° 0 mm 0 mps 746 mmHg 49%
    17:00 +28°C° 0 mm 0 mps 746 mmHg 52%
    18:00 +26°C° 0 mm 0 mps 747 mmHg 55%
    19:00 +24°C° 0 mm 0 mps 747 mmHg 59%
    20:00 +24°C° 0 mm 0 mps 747 mmHg 60%
    21:00 +23°C° 0 mm 0 mps 748 mmHg 62%
    22:00 +23°C° 0 mm 0 mps 748 mmHg 64%
    23:00 +22°C° 0 mm 0 mps 748 mmHg 65%

    22 June, Friday

    Time Temperature Precipitation Wind Pressure Humidity
    00:00 +22°C° 0 mm 0 mps 748 mmHg 65%
    01:00 +22°C° 0 mm 0 mps 747 mmHg 66%
    02:00 +21°C° 0 mm 0 mps 747 mmHg 68%
    03:00 +21°C° 0 mm 0 mps 747 mmHg 69%
    04:00 +21°C° 0 mm 0 mps 747 mmHg 70%
    05:00 +21°C° 0 mm 0 mps 748 mmHg 71%
    06:00 +22°C° 0 mm 0 mps 749 mmHg 71%
    07:00 +22°C° 0 mm 0 mps 749 mmHg 71%
    08:00 +25°C° 0 mm 0 mps 749 mmHg 63%
    09:00 +28°C° 0 mm 0 mps 749 mmHg 54%
    10:00 +31°C° 0 mm 0 mps 750 mmHg 46%
    11:00 +32°C° 0 mm 0 mps 749 mmHg 43%
    12:00 +33°C° 0 mm 0 mps 748 mmHg 40%
    13:00 +34°C° 0 mm 0 mps 747 mmHg 37%
    14:00 +33°C° 0 mm 0 mps 746 mmHg 41%
    15:00 +32°C° 0 mm 0 mps 745 mmHg 46%
    16:00 +31°C° 0 mm 0 mps 745 mmHg 50%
    17:00 +29°C° 0 mm 0 mps 745 mmHg 54%
    18:00 +27°C° 0 mm 0 mps 745 mmHg 58%
    19:00 +25°C° 0 mm 0 mps 746 mmHg 62%
    20:00 +24°C° 0 mm 0 mps 746 mmHg 64%
    21:00 +24°C° 0 mm 0 mps 746 mmHg 65%
    22:00 +24°C° 0 mm 0 mps 746 mmHg 67%
    23:00 +23°C° 0 mm 0 mps 746 mmHg 69%

    23 June, Saturday

    Time Temperature Precipitation Wind Pressure Humidity
    00:00 +23°C° 0 mm 0 mps 746 mmHg 71%
    01:00 +22°C° 0 mm 0 mps 746 mmHg 73%
    02:00 +22°C° 0 mm 0 mps 746 mmHg 74%
    03:00 +22°C° 0 mm 0 mps 746 mmHg 76%
    04:00 +21°C° 0 mm 0 mps 746 mmHg 77%
    05:00 +22°C° 0 mm 0 mps 746 mmHg 76%
    06:00 +23°C° 0 mm 0 mps 747 mmHg 75%
    07:00 +23°C° 0 mm 0 mps 747 mmHg 74%
    08:00 +26°C° 0 mm 0 mps 748 mmHg 66%
    09:00 +30°C° 0 mm 1 mps 748 mmHg 58%
    10:00 +33°C° 0 mm 1 mps 748 mmHg 49%
    11:00 +33°C° 0 mm 1 mps 747 mmHg 47%
    12:00 +34°C° 0 mm 1 mps 746 mmHg 44%
    13:00 +35°C° 0 mm 1 mps 745 mmHg 42%
    14:00 +34°C° 0 mm 1 mps 744 mmHg 46%
    15:00 +34°C° 0 mm 1 mps 744 mmHg 51%
    16:00 +31°C° 0 mm 0 mps 744 mmHg 55%
    17:00 +30°C° 0 mm 0 mps 744 mmHg 58%
    18:00 +28°C° 0 mm 0 mps 744 mmHg 61%
    19:00 +27°C° 0 mm 0 mps 745 mmHg 64%
    20:00 +26°C° 0 mm 0 mps 745 mmHg 66%
    21:00 +26°C° 0 mm 0 mps 745 mmHg 69%
    22:00 +27°C° 0 mm 1 mps 746 mmHg 71%
    23:00 +27°C° 0 mm 1 mps 746 mmHg 75%

    24 June, Sunday

    Time Temperature Precipitation Wind Pressure Humidity
    00:00 +26°C° 0 mm 1 mps 746 mmHg 79%
    01:00 +25°C° 0 mm 1 mps 745 mmHg 83%
    02:00 +25°C° 0.1 mm 1 mps 746 mmHg 86%
    03:00 +25°C° 0.1 mm 1 mps 746 mmHg 88%
    04:00 +24°C° 0.1 mm 1 mps 746 mmHg 91%
    05:00 +23°C° 0.3 mm 0 mps 746 mmHg 90%
    06:00 +23°C° 0.3 mm 0 mps 747 mmHg 88%
    07:00 +23°C° 0.3 mm 0 mps 748 mmHg 87%
    08:00 +26°C° 0.3 mm 0 mps 748 mmHg 79%
    09:00 +28°C° 0.3 mm 0 mps 748 mmHg 72%
    10:00 +30°C° 0.3 mm 0 mps 748 mmHg 64%
    11:00 +30°C° 1.7 mm 0 mps 747 mmHg 65%
    12:00 +32°C° 1.7 mm 1 mps 746 mmHg 65%
    13:00 +32°C° 1.7 mm 1 mps 745 mmHg 65%
    14:00 +32°C° 0 mm 1 mps 745 mmHg 63%
    15:00 +30°C° 0 mm 0 mps 745 mmHg 61%
    16:00 +30°C° 0 mm 0 mps 744 mmHg 59%
    17:00 +29°C° 0 mm 0 mps 745 mmHg 64%
    18:00 +27°C° 0 mm 0 mps 745 mmHg 70%
    19:00 +25°C° 0 mm 0 mps 745 mmHg 76%
    20:00 +25°C° 0 mm 0 mps 746 mmHg 77%
    21:00 +24°C° 0 mm 0 mps 746 mmHg 79%
    22:00 +24°C° 0 mm 0 mps 746 mmHg 81%
    23:00 +23°C° 0 mm 0 mps 746 mmHg 82%
    Show more